Regional Weather Roundup
Issued by NWS

Home | Current Version | Previous Version | Graphics & Text | Print | Product List | Glossary On
Versions: 1 2 3 4 5 6 7 8 9 10 11 12 13 14 15 16 17 18 19 20 21 22 23 24 25 26 27 28 29 30 31 32 33 34 35 36 37 38 39 40 41 42 43 44 45 46 47 48 49 50
000
ASUS45 KBOU 080707
RWRCO

WEATHER ROUNDUP FOR COLORADO
NATIONAL WEATHER SERVICE DENVER/BOULDER CO
1200 AM MST MON FEB 08 2016

NOTE: "FAIR" INDICATES FEW OR NO CLOUDS BELOW 12000 FEET WITH NO
SIGNIFICANT WEATHER AND/OR OBSTRUCTIONS TO VISIBILITY.

COZ001>005-013-030-031-080800-
...NORTHWEST COLORADO...

CITY           SKY/WX    TMP DP  RH WIND       PRES   REMARKS
CRAIG          CLOUDY    -1  -5  82 W3        30.54F
HAYDEN         CLOUDY    14  10  85 NE3       30.51F
MEEKER         CLOUDY    10   5  80 NE7       30.53S WCI  -1
MOUNT WERNER   NOT AVBL
STEAMBOAT SPGS CLOUDY    16  11  82 CALM      30.51F
WALDEN         CLOUDY    23  14  68 S5        30.44S WCI  17
$$

COZ006>008-011-080800-
...WEST CENTRAL VALLEYS...

CITY           SKY/WX    TMP DP  RH WIND       PRES   REMARKS
GRAND JUNCTION CLOUDY    16  13  88 E3        30.55R
MONTROSE       CLOUDY    17  11  77 SE6       30.56R WCI   9
EAGLE          CLOUDY    14  12  92 S3        30.56R
RIFLE          CLOUDY    13   8  81 CALM      30.56R
DELTA          CLOUDY    22  18  85 CALM      30.56R
NUCLA          CLOUDY    21  18  86 E3        30.55R
$$

COZ017>023-064>068-080800-
...SOUTHWEST COLORADO...

CITY           SKY/WX    TMP DP  RH WIND       PRES   REMARKS
DURANGO        CLOUDY    18  12  77 N5        30.42S WCI  11
CORTEZ         CLOUDY    21  15  78 NE12      30.42S WCI   9
PAGOSA SPRINGS CLOUDY    16  15  95 CALM      30.42F
TELLURIDE      NOT AVBL
WOLF CREEK PAS CLOUDY    23   0  36 NE18      30.49F WCI   9
$$

COZ009-010-012-014-032>034-037-058>063-080800-
...CENTRAL COLORADO...

CITY           SKY/WX    TMP DP  RH WIND       PRES   REMARKS
ASPEN          CLOUDY    14   7  73 CALM      30.52R
BUENA VISTA    CLOUDY    30  11  43 N24G32    30.35R WCI  17
COPPER MTN     CLOUDY    18   9  68 W13G21    30.46R WCI   4
BERTHOUD PASS  CLOUDY     9  -2  61 NW38G47   30.37S WCI -16
COTTONWOOD PAS CLOUDY    30   9  40 SE18G32   30.35S WCI  18
GUNNISON       CLOUDY    -2 -17  50 CALM      30.55S
KREMMLING      CLOUDY    18  10  73 CALM      30.51S
LEADVILLE      CLOUDY    12   4  70 N12       30.46R WCI  -2
MONARCH PASS   CLOUDY    14   5  67 MISG      30.53S
SALIDA         NOT AVBL
SUNLIGHT       CLOUDY    21  14  73 W9          N/A  WCI  11
WILKERSON PASS CLOUDY    21   7  53 N25G47    30.32S WCI   4
$$

COZ069>075-080800-
...SAN LUIS VALLEY/SANGRE DE CRISTO MOUNTAINS...

CITY           SKY/WX    TMP DP  RH WIND       PRES   REMARKS
ALAMOSA        CLOUDY    13   8  81 SW6       30.40F WCI   4
LA VETA PASS   CLOUDY    27   9  46 MISG      30.37R
SAGUACHE       CLOUDY    28  14  54 N10       30.41F WCI  19
$$

COZ035-036-038>040-080800-
...NORTHERN COLORADO FRONT RANGE...

CITY           SKY/WX    TMP DP  RH WIND       PRES   REMARKS
DENVER INTL AP CLOUDY    18  11  74 SE12      30.38S WCI   5
DMNS CITY PARK   N/A     24  15  69 SE12      30.40S WCI  13
AURORA         MOCLDY    20  13  76 SE10      30.39S WCI   8
FRONT RANGE AP NOT AVBL
ERIE MUNI ARPT CLOUDY    27  19  72 S8        30.39F WCI  18
BOULDER MUN AP CLOUDY    27  19  74 CALM      30.38F
CENTENNIAL     CLOUDY    20  15  81 S12       30.37S WCI   8
BROOMFIELD     CLOUDY    27  21  80 S8        30.37F WCI  18
FORT COLLINS   CLOUDY    19  14  79 S8        30.40F WCI   9
LONGMONT       CLOUDY    26  20  78 SW3       30.41F
$$

COZ041-046-047-076>085-087-088-080800-
...PIKES PEAK/PALMER DIVIDE AND SOUTHERN FOOTHILLS...

CITY           SKY/WX    TMP DP  RH WIND       PRES   REMARKS
COLO. SPRINGS  CLOUDY    23  19  85 SE5       30.40R WCI  17
A. F. ACADEMY  CLOUDY    22  20  93 SE5       30.37R WCI  16
SCHRIEVER AFB  NOT AVBL
ELLICOTT       NOT AVBL
FALCON         CLOUDY    20  19  94 CALM      30.38R
FORT CARSON    CLOUDY    23  20  88 CALM      30.39R
LIMON          CLOUDY    17  10  74 NW10      30.39R WCI   5
MONUMENT HILL  FOG       18  16  93 SE7       30.37R VSB 3/4 WCI   8
TRINIDAD       CLOUDY    21  17  84 W3        30.40S
$$

COZ042>045-048>051-090-091-080800-
...NORTHEAST COLORADO...

CITY           SKY/WX    TMP DP  RH WIND       PRES   REMARKS
GREELEY ARPT   CLOUDY    18  12  79 W9        30.41F WCI   6
AKRON          PTCLDY    23  11  60 NW24G31   30.36R WCI   7
BURLINGTON     CLOUDY    27  14  58 NW22      30.36S WCI  13
WRAY           CLEAR     27  13  54 NW24      30.34S WCI  13
STERLING       CLEAR     28  14  54 N17       30.36S WCI  16
HOLYOKE        CLEAR     30  14  51 NW21G30   30.32S WCI  17
FORT MORGAN    CLEAR     16  10  79 NW10      30.40S WCI   3
$$

COZ086-089-092>099-080800-
...SOUTHEAST COLORADO...

CITY           SKY/WX    TMP DP  RH WIND       PRES   REMARKS
PUEBLO         CLOUDY    30  21  69 CALM      30.44R
LA JUNTA       CLOUDY    28  21  75 W6        30.44S WCI  22
LAMAR          PTCLDY    30  16  56 W12       30.41F WCI  20
SPRINGFIELD      N/A     22  16  78 NW8       30.41S WCI  12
$$



USA.gov is the U.S. government's official web portal to all federal, state and local government web resources and services.